Tracking 29892 objects as of 21-Nov-2024
HD Live streaming from Space Station
objects crossing your sky now

STARLINK-2475

Track STARLINK-2475 now!
10-day predictions
STARLINK-2475 is classified as:


NORAD ID: 48133
Int'l Code: 2021-027AT
Perigee: 553.8 km
Apogee: 555.0 km
Inclination: 53.1 °
Period: 95.6 minutes
Semi major axis: 6925 km
RCS: Unknown
Launch date: April 7, 2021
Source: United States (US)
Launch site: AIR FORCE EASTERN TEST RANGE (AFETR)
Your satellite tracking list
Your tracking list is empty




NASA's NSSDC Master Catalog

Two Line Element Set (TLE):
1 48133U 21027AT  24324.80808141  .00001190  00000-0  98758-4 0  9998
2 48133  53.0544 143.4450 0000887 101.2676 258.8413 15.06395376200849
Source of the keplerian elements: AFSPC